13-09-2022, 00:00:06,    343,    0.0,   16.2,   0.00,   0.00, 1008.9,   86.5, -999.0
13-09-2022, 00:00:16,    343,    0.0,   16.2,   0.00,   0.00, 1008.9,   86.3, -999.0
13-09-2022, 00:00:26,    343,    0.0,   16.2,   0.00,   0.00, 1008.9,   86.2, -999.0
13-09-2022, 00:00:36,    343,    0.0,   16.1,   0.00,   0.00, 1008.8,   86.3, -999.0
13-09-2022, 00:00:47,    343,    0.0,   16.2,   0.00,   0.00, 1008.9,   86.2, -999.0
13-09-2022, 00:00:56,    343,    0.0,   16.2,   0.00,   0.00, 1008.9,   86.4, -999.0
13-09-2022, 00:01:06,    343,    0.9,   16.2,   0.00,   0.00, 1009.0,   86.7, -999.0
13-09-2022, 00:01:16,    343,    0.7,   16.3,   0.00,   0.00, 1009.0,   86.7, -999.0
13-09-2022, 00:01:26,    343,    0.2,   16.2,   0.00,   0.00, 1008.9,   86.6, -999.0
13-09-2022, 00:01:36,    343,    0.0,   16.1,   0.00,   0.00, 1008.9,   86.4, -999.0
13-09-2022, 00:01:45,    343,    0.0,   16.1,   0.00,   0.00, 1008.9,   86.3, -999.0
13-09-2022, 00:01:55,    343,    0.0,   16.2,   0.00,   0.00, 1008.9,   86.4, -999.0
13-09-2022, 00:02:06,    343,    0.0,   16.1,   0.00,   0.00, 1008.9,   86.4, -999.0
13-09-2022, 00:02:15,    343,    0.0,   16.1,   0.00,   0.00, 1008.9,   86.4, -999.0
13-09-2022, 00:02:25,    343,    0.0,   16.1,   0.00,   0.00, 1008.8,   86.5, -999.0
13-09-2022, 00:02:35,    343,    0.0,   16.1,   0.00,   0.00, 1008.9,   86.4, -999.0
13-09-2022, 00:02:45,    343,    0.0,   16.1,   0.00,   0.00, 1008.9,   86.5, -999.0
13-09-2022, 00:02:55,    343,    0.0,   16.1,   0.00,   0.00, 1008.9,   86.3, -999.0
13-09-2022, 00:03:05,    343,    0.0,   16.1,   0.00,   0.00, 1008.9,   86.5, -999.0
13-09-2022, 00:03:15,    342,    0.0,   16.1,   0.00,   0.00, 1008.9,   86.6, -999.0
13-09-2022, 00:03:25,    343,    0.0,   16.1,   0.00,   0.00, 1008.9,   86.5, -999.0
13-09-2022, 00:03:35,    343,    0.0,   16.1,   0.00,   0.00, 1008.9,   86.5, -999.0
13-09-2022, 00:03:45,    343,    0.0,   16.1,   0.00,   0.00, 1008.9,   86.6, -999.0
13-09-2022, 00:03:55,    343,    0.0,   16.1,   0.00,   0.00, 1008.9,   86.6, -999.0
13-09-2022, 00:04:05,    343,    0.0,   16.0,   0.00,   0.00, 1008.9,   86.7, -999.0
13-09-2022, 00:04:15,    343,    0.0,   16.1,   0.00,   0.00, 1008.9,   86.6, -999.0
13-09-2022, 00:04:24,    343,    0.0,   16.1,   0.00,   0.00, 1008.9,   86.6, -999.0
13-09-2022, 00:04:35,    343,    0.0,   16.1,   0.00,   0.00, 1008.9,   86.6, -999.0
13-09-2022, 00:04:45,    343,    0.0,   16.1,   0.00,   0.00, 1008.9,   86.7, -999.0
13-09-2022, 00:04:54,    343,    0.0,   16.1,   0.00,   0.00, 1008.9,   86.6, -999.0
13-09-2022, 00:05:04,    343,    0.0,   16.1,   0.00,   0.00, 1008.9,   86.5, -999.0
13-09-2022, 00:05:14,    343,    0.0,   16.1,   0.00,   0.00, 1008.9,   86.5, -999.0
13-09-2022, 00:05:24,    358,    0.6,   16.1,   0.00,   0.00, 1008.9,   86.6, -999.0
13-09-2022, 00:05:34,    358,    1.1,   16.2,   0.00,   0.00, 1009.0,   86.6, -999.0
13-09-2022, 00:05:44,     20,    0.3,   16.1,   0.00,   0.00, 1008.9,   86.6, -999.0
13-09-2022, 00:05:55,     20,    0.5,   16.2,   0.00,   0.00, 1008.9,   86.5, -999.0
13-09-2022, 00:06:04,     20,    0.0,   16.1,   0.00,   0.00, 1008.9,   86.3, -999.0
13-09-2022, 00:06:14,     16,    0.0,   16.1,   0.00,   0.00, 1008.9,   86.4, -999.0
13-09-2022, 00:06:24,     14,    0.0,   16.1,   0.00,   0.00, 1009.0,   86.4, -999.0
13-09-2022, 00:06:34,     14,    0.0,   16.0,   0.00,   0.00, 1008.9,   86.4, -999.0
13-09-2022, 00:06:44,     14,    0.0,   16.1,   0.00,   0.00, 1008.9,   86.3, -999.0
13-09-2022, 00:06:54,    326,    2.3,   16.2,   0.00,   0.00, 1009.0,   86.6, -999.0
13-09-2022, 00:07:03,    358,    1.0,   16.2,   0.00,   0.00, 1008.9,   86.5, -999.0
13-09-2022, 00:07:14,    358,    0.0,   16.1,   0.00,   0.00, 1008.9,   86.2, -999.0
13-09-2022, 00:07:24,      0,    1.8,   16.1,   0.00,   0.00, 1009.1,   86.5, -999.0
13-09-2022, 00:07:33,      0,    0.4,   16.2,   0.00,   0.00, 1009.0,   86.3, -999.0
13-09-2022, 00:07:43,      0,    0.2,   16.1,   0.00,   0.00, 1008.9,   86.2, -999.0
13-09-2022, 00:07:54,      0,    0.0,   16.1,   0.00,   0.00, 1008.9,   86.1, -999.0
13-09-2022, 00:08:03,      0,    0.0,   16.1,   0.00,   0.00, 1008.9,   86.0, -999.0
13-09-2022, 00:08:13,    346,    0.0,   16.0,   0.00,   0.00, 1008.9,   86.1, -999.0
13-09-2022, 00:08:23,    344,    3.4,   16.1,   0.00,   0.00, 1009.0,   86.4, -999.0
13-09-2022, 00:08:33,    350,    2.4,   16.1,   0.00,   0.00, 1009.0,   86.3, -999.0
13-09-2022, 00:08:43,    348,    1.6,   16.1,   0.00,   0.00, 1009.0,   86.1, -999.0
13-09-2022, 00:08:53,    348,    0.3,   16.1,   0.00,   0.00, 1009.0,   86.0, -999.0
13-09-2022, 00:09:03,    348,    0.1,   16.1,   0.00,   0.00, 1008.9,   86.1, -999.0
13-09-2022, 00:09:13,    348,    0.2,   16.1,   0.00,   0.00, 1009.0,   86.2, -999.0
13-09-2022, 00:09:23,    348,    0.1,   16.1,   0.00,   0.00, 1009.0,   86.0, -999.0
13-09-2022, 00:09:33,    348,    0.4,   16.1,   0.00,   0.00, 1009.0,   86.2, -999.0
13-09-2022, 00:09:43,      0,    0.0,   16.0,   0.00,   0.00, 1008.9,   86.0, -999.0
13-09-2022, 00:09:53,     25,    1.2,   16.0,   0.00,   0.00, 1009.0,   86.2, -999.0
13-09-2022, 00:10:03,    358,    0.5,   16.1,   0.00,   0.00, 1009.0,   86.1, -999.0
13-09-2022, 00:10:12,    322,    0.5,   16.0,   0.00,   0.00, 1009.0,   86.1, -999.0
13-09-2022, 00:10:23,      0,    0.6,   16.0,   0.00,   0.00, 1009.0,   86.2, -999.0
13-09-2022, 00:10:32,      0,    0.6,   16.0,   0.00,   0.00, 1009.1,   86.2, -999.0
13-09-2022, 00:10:42,    315,    0.4,   16.1,   0.00,   0.00, 1009.0,   86.1, -999.0
13-09-2022, 00:10:52,    321,    0.0,   16.0,   0.00,   0.00, 1008.9,   85.9, -999.0
13-09-2022, 00:11:02,    357,    0.0,   16.0,   0.00,   0.00, 1008.9,   85.9, -999.0
13-09-2022, 00:11:12,    357,    0.0,   16.0,   0.00,   0.00, 1008.9,   86.1, -999.0
13-09-2022, 00:11:22,    327,    0.5,   15.9,   0.00,   0.00, 1009.0,   86.1, -999.0
13-09-2022, 00:11:32,    344,    1.6,   16.0,   0.00,   0.00, 1009.0,   86.3, -999.0
13-09-2022, 00:11:42,    358,    2.2,   16.0,   0.00,   0.00, 1009.0,   86.2, -999.0
13-09-2022, 00:11:52,    348,    1.1,   16.1,   0.00,   0.00, 1009.0,   86.3, -999.0
13-09-2022, 00:12:02,    347,    0.3,   16.0,   0.00,   0.00, 1009.0,   86.3, -999.0
13-09-2022, 00:12:12,    348,    0.0,   15.9,   0.00,   0.00, 1008.9,   85.9, -999.0
13-09-2022, 00:12:22,    347,    0.0,   15.9,   0.00,   0.00, 1008.9,   86.1, -999.0
13-09-2022, 00:12:32,    347,    0.0,   15.9,   0.00,   0.00, 1009.0,   86.1, -999.0
13-09-2022, 00:12:41,    340,    1.2,   16.0,   0.00,   0.00, 1009.0,   86.5, -999.0
13-09-2022, 00:12:52,     19,    2.0,   16.1,   0.00,   0.00, 1009.0,   86.6, -999.0
13-09-2022, 00:13:02,    351,    2.8,   16.1,   0.00,   0.00, 1009.0,   86.6, -999.0
13-09-2022, 00:13:11,    358,    1.1,   16.1,   0.00,   0.00, 1009.0,   86.6, -999.0
13-09-2022, 00:13:21,    342,    0.5,   16.0,   0.00,   0.00, 1008.9,   86.5, -999.0
13-09-2022, 00:13:32,    342,    0.0,   15.9,   0.00,   0.00, 1008.9,   86.2, -999.0
13-09-2022, 00:13:41,    342,    0.0,   16.0,   0.00,   0.00, 1008.9,   86.2, -999.0
13-09-2022, 00:13:51,    354,    0.5,   16.0,   0.00,   0.00, 1008.9,   86.3, -999.0
13-09-2022, 00:14:01,    349,    1.6,   16.0,   0.00,   0.00, 1009.0,   86.5, -999.0
13-09-2022, 00:14:11,    347,    0.7,   16.0,   0.00,   0.00, 1009.0,   86.3, -999.0
13-09-2022, 00:14:21,    355,    0.1,   15.9,   0.00,   0.00, 1008.9,   86.1, -999.0
13-09-2022, 00:14:31,    356,    0.0,   15.9,   0.00,   0.00, 1008.9,   86.0, -999.0
13-09-2022, 00:14:41,    296,    0.0,   16.0,   0.00,   0.00, 1008.8,   85.9, -999.0
13-09-2022, 00:14:51,    296,    0.0,   15.9,   0.00,   0.00, 1008.8,   86.1, -999.0
13-09-2022, 00:15:01,    296,    0.0,   15.9,   0.00,   0.00, 1008.8,   86.1, -999.0
13-09-2022, 00:15:11,    296,    0.0,   15.9,   0.00,   0.00, 1008.8,   86.2, -999.0
13-09-2022, 00:15:21,    350,    0.0,   15.9,   0.00,   0.00, 1008.8,   86.1, -999.0
13-09-2022, 00:15:31,      0,    0.0,   15.9,   0.00,   0.00, 1008.8,   86.1, -999.0
13-09-2022, 00:15:40,    343,    1.3,   16.0,   0.00,   0.00, 1009.0,   86.5, -999.0
13-09-2022, 00:15:50,    343,    1.1,   15.9,   0.00,   0.00, 1008.9,   86.5, -999.0
13-09-2022, 00:16:01,    342,    0.1,   15.9,   0.00,   0.00, 1008.9,   86.5, -999.0
13-09-2022, 00:16:10,    341,    0.4,   15.9,   0.00,   0.00, 1008.9,   86.5, -999.0
13-09-2022, 00:16:20,    342,    0.1,   15.9,   0.00,   0.00, 1008.9,   86.4, -999.0
13-09-2022, 00:16:30,    343,    0.4,   16.0,   0.00,   0.00, 1008.9,   86.6, -999.0
13-09-2022, 00:16:40,    343,    0.0,   15.9,   0.00,   0.00, 1008.8,   86.3, -999.0
13-09-2022, 00:16:50,    342,    0.0,   15.9,   0.00,   0.00, 1008.8,   86.3, -999.0
13-09-2022, 00:17:00,    343,    0.0,   15.9,   0.00,   0.00, 1008.9,   86.4, -999.0
13-09-2022, 00:17:10,      2,    1.1,   15.9,   0.00,   0.00, 1008.9,   86.7, -999.0
13-09-2022, 00:17:20,    356,    1.4,   15.9,   0.00,   0.00, 1008.9,   86.7, -999.0
13-09-2022, 00:17:30,      0,    1.6,   16.0,   0.00,   0.00, 1009.0,   86.7, -999.0
13-09-2022, 00:17:40,      0,    1.7,   16.0,   0.00,   0.00, 1009.0,   86.7, -999.0
13-09-2022, 00:17:50,    353,    0.7,   16.0,   0.00,   0.00, 1009.0,   86.8, -999.0
13-09-2022, 00:18:00,    346,    0.8,   15.9,   0.00,   0.00, 1009.0,   86.7, -999.0
13-09-2022, 00:18:10,    345,    0.2,   15.9,   0.00,   0.00, 1008.9,   86.6, -999.0
13-09-2022, 00:18:19,    345,    0.0,   15.8,   0.00,   0.00, 1008.8,   86.4, -999.0
13-09-2022, 00:18:30,     56,    0.3,   15.9,   0.00,   0.00, 1008.9,   86.7, -999.0
13-09-2022, 00:18:40,    357,    0.0,   15.9,   0.00,   0.00, 1008.9,   86.6, -999.0
13-09-2022, 00:18:49,    321,    0.2,   15.9,   0.00,   0.00, 1008.9,   86.9, -999.0
13-09-2022, 00:19:00,     16,    0.1,   15.9,   0.00,   0.00, 1008.8,   86.6, -999.0
13-09-2022, 00:19:09,     15,    0.4,   15.9,   0.00,   0.00, 1008.9,   86.7, -999.0
13-09-2022, 00:19:19,     14,    0.1,   15.9,   0.00,   0.00, 1009.0,   86.7, -999.0
13-09-2022, 00:19:29,      0,    0.9,   15.9,   0.00,   0.00, 1008.9,   86.7, -999.0
13-09-2022, 00:19:39,    348,    2.8,   16.0,   0.00,   0.00, 1009.0,   86.9, -999.0
13-09-2022, 00:19:49,    275,    1.4,   16.0,   0.00,   0.00, 1009.0,   86.9, -999.0
13-09-2022, 00:19:59,     25,    0.0,   15.9,   0.00,   0.00, 1008.9,   86.5, -999.0
13-09-2022, 00:20:09,     25,    0.0,   15.9,   0.00,   0.00, 1008.8,   86.4, -999.0
13-09-2022, 00:20:19,     21,    0.0,   15.9,   0.00,   0.00, 1008.9,   86.4, -999.0
13-09-2022, 00:20:29,     21,    0.0,   15.9,   0.00,   0.00, 1008.9,   86.4, -999.0
13-09-2022, 00:20:39,     21,    0.0,   15.8,   0.00,   0.00, 1008.9,   86.4, -999.0
13-09-2022, 00:20:49,      0,    0.5,   16.0,   0.00,   0.00, 1009.0,   86.5, -999.0
13-09-2022, 00:20:59,    327,    1.7,   16.0,   0.00,   0.00, 1009.1,   86.7, -999.0
13-09-2022, 00:21:09,    327,    0.0,   15.9,   0.00,   0.00, 1009.0,   86.3, -999.0
13-09-2022, 00:21:18,    327,    0.0,   15.9,   0.00,   0.00, 1009.0,   86.4, -999.0
13-09-2022, 00:21:29,    330,    1.0,   15.9,   0.00,   0.00, 1009.0,   86.5, -999.0
13-09-2022, 00:21:39,    332,    1.5,   15.9,   0.00,   0.00, 1009.1,   86.6, -999.0
13-09-2022, 00:21:48,    332,    0.2,   15.9,   0.00,   0.00, 1009.1,   86.4, -999.0
13-09-2022, 00:21:58,      0,    1.4,   15.9,   0.00,   0.00, 1009.1,   86.7, -999.0
13-09-2022, 00:22:08,      0,    1.6,   15.9,   0.00,   0.00, 1009.1,   86.7, -999.0
13-09-2022, 00:22:18,      9,    0.2,   15.9,   0.00,   0.00, 1009.1,   86.5, -999.0
13-09-2022, 00:22:28,    334,    1.0,   15.9,   0.00,   0.00, 1009.1,   86.6, -999.0
13-09-2022, 00:22:38,    338,    1.6,   15.9,   0.00,   0.00, 1009.1,   86.8, -999.0
13-09-2022, 00:22:48,    358,    1.7,   15.9,   0.00,   0.00, 1009.1,   86.8, -999.0
13-09-2022, 00:22:58,    349,    0.5,   15.9,   0.00,   0.00, 1009.1,   86.6, -999.0
13-09-2022, 00:23:08,     11,    0.5,   15.9,   0.00,   0.00, 1009.1,   86.6, -999.0
13-09-2022, 00:23:18,      0,    1.2,   15.9,   0.00,   0.00, 1009.2,   86.7, -999.0
13-09-2022, 00:23:28,      8,    0.1,   15.8,   0.00,   0.00, 1009.0,   86.5, -999.0
13-09-2022, 00:23:38,     13,    0.4,   15.8,   0.00,   0.00, 1009.1,   86.5, -999.0
13-09-2022, 00:23:48,     13,    0.3,   15.8,   0.00,   0.00, 1009.1,   86.7, -999.0
13-09-2022, 00:23:58,     13,    0.2,   15.8,   0.00,   0.00, 1009.1,   86.7, -999.0
13-09-2022, 00:24:08,    302,    0.2,   15.8,   0.00,   0.00, 1009.1,   86.7, -999.0
13-09-2022, 00:24:17,    328,    1.1,   15.9,   0.00,   0.00, 1009.2,   87.0, -999.0
13-09-2022, 00:24:27,    328,    0.4,   15.9,   0.00,   0.00, 1009.2,   87.0, -999.0
13-09-2022, 00:24:38,    329,    0.4,   15.8,   0.00,   0.00, 1009.2,   87.0, -999.0
13-09-2022, 00:24:47,    329,    0.5,   15.8,   0.00,   0.00, 1009.1,   86.9, -999.0
13-09-2022, 00:24:57,    321,    0.7,   15.8,   0.00,   0.00, 1009.1,   86.9, -999.0
13-09-2022, 00:25:07,      6,    1.4,   15.9,   0.00,   0.00, 1009.2,   87.1, -999.0
13-09-2022, 00:25:17,      0,    1.6,   15.9,   0.00,   0.00, 1009.2,   87.0, -999.0
13-09-2022, 00:25:27,      0,    0.2,   15.9,   0.00,   0.00, 1009.2,   87.0, -999.0
13-09-2022, 00:25:37,      8,    0.0,   15.8,   0.00,   0.00, 1009.1,   86.8, -999.0
13-09-2022, 00:25:47,    299,    1.3,   15.9,   0.00,   0.00, 1009.2,   87.0, -999.0
13-09-2022, 00:25:57,    352,    0.9,   15.9,   0.00,   0.00, 1009.2,   87.0, -999.0
13-09-2022, 00:26:07,    352,    0.4,   15.9,   0.00,   0.00, 1009.1,   86.9, -999.0
13-09-2022, 00:26:17,    352,    0.0,   15.8,   0.00,   0.00, 1009.0,   86.5, -999.0
13-09-2022, 00:26:27,    352,    0.0,   15.7,   0.00,   0.00, 1009.0,   86.5, -999.0
13-09-2022, 00:26:37,    352,    0.0,   15.8,   0.00,   0.00, 1009.0,   86.6, -999.0
13-09-2022, 00:26:47,    329,    1.0,   15.8,   0.00,   0.00, 1009.1,   86.8, -999.0
13-09-2022, 00:26:56,     12,    1.1,   15.9,   0.00,   0.00, 1009.2,   87.0, -999.0
13-09-2022, 00:27:07,     12,    0.0,   15.8,   0.00,   0.00, 1009.1,   86.8, -999.0
13-09-2022, 00:27:17,      0,    0.0,   15.8,   0.00,   0.00, 1009.1,   86.6, -999.0
13-09-2022, 00:27:26,    358,    1.2,   15.8,   0.00,   0.00, 1009.1,   86.8, -999.0
13-09-2022, 00:27:36,    332,    2.8,   15.8,   0.00,   0.00, 1009.2,   86.8, -999.0
13-09-2022, 00:27:46,    344,    1.5,   15.8,   0.00,   0.00, 1009.2,   86.9, -999.0
13-09-2022, 00:27:56,    344,    0.0,   15.7,   0.00,   0.00, 1009.1,   86.5, -999.0
13-09-2022, 00:28:06,    344,    0.5,   15.7,   0.00,   0.00, 1009.2,   86.7, -999.0
13-09-2022, 00:28:16,    344,    0.2,   15.7,   0.00,   0.00, 1009.1,   86.5, -999.0
13-09-2022, 00:28:26,      0,    0.7,   15.7,   0.00,   0.00, 1009.1,   86.8, -999.0
13-09-2022, 00:28:36,      0,    1.9,   15.8,   0.00,   0.00, 1009.2,   87.0, -999.0
13-09-2022, 00:28:46,      3,    2.2,   15.8,   0.00,   0.00, 1009.2,   87.0, -999.0
13-09-2022, 00:28:56,    357,    0.8,   15.8,   0.00,   0.00, 1009.1,   87.0, -999.0
13-09-2022, 00:29:06,      0,    0.0,   15.7,   0.00,   0.00, 1009.0,   86.7, -999.0
13-09-2022, 00:29:16,    358,    1.7,   15.8,   0.00,   0.00, 1009.1,   87.1, -999.0
13-09-2022, 00:29:25,      0,    1.6,   15.8,   0.00,   0.00, 1009.2,   87.2, -999.0
13-09-2022, 00:29:36,      0,    0.2,   15.8,   0.00,   0.00, 1009.1,   87.0, -999.0
13-09-2022, 00:29:46,      0,    0.0,   15.6,   0.00,   0.00, 1009.0,   86.8, -999.0
13-09-2022, 00:29:55,      0,    0.0,   15.6,   0.00,   0.00, 1009.0,   86.8, -999.0
13-09-2022, 00:30:06,      0,    0.6,   15.8,   0.00,   0.00, 1009.2,   87.1, -999.0
13-09-2022, 00:30:16,    329,    1.3,   15.7,   0.00,   0.00, 1009.2,   87.2, -999.0
13-09-2022, 00:30:25,    329,    0.7,   15.8,   0.00,   0.00, 1009.2,   87.0, -999.0
13-09-2022, 00:30:35,    329,    0.5,   15.7,   0.00,   0.00, 1009.2,   87.2, -999.0
13-09-2022, 00:30:45,    329,    0.3,   15.7,   0.00,   0.00, 1009.1,   87.1, -999.0
13-09-2022, 00:30:55,     24,    0.9,   15.7,   0.00,   0.00, 1009.2,   87.1, -999.0
13-09-2022, 00:31:05,     24,    0.1,   15.7,   0.00,   0.00, 1009.1,   87.0, -999.0
13-09-2022, 00:31:15,    344,    0.8,   15.7,   0.00,   0.00, 1009.1,   87.1, -999.0
13-09-2022, 00:31:25,     12,    2.7,   15.7,   0.00,   0.00, 1009.2,   87.3, -999.0
13-09-2022, 00:31:35,     13,    1.2,   15.7,   0.00,   0.00, 1009.2,   87.2, -999.0
13-09-2022, 00:31:45,     12,    0.4,   15.7,   0.00,   0.00, 1009.1,   87.1, -999.0
13-09-2022, 00:31:55,     12,    0.0,   15.7,   0.00,   0.00, 1009.1,   87.0, -999.0
13-09-2022, 00:32:05,     12,    0.0,   15.7,   0.00,   0.00, 1009.1,   87.0, -999.0
13-09-2022, 00:32:15,    337,    0.0,   15.7,   0.00,   0.00, 1009.1,   87.1, -999.0
13-09-2022, 00:32:25,    346,    1.1,   15.7,   0.00,   0.00, 1009.2,   87.3, -999.0
13-09-2022, 00:32:34,    334,    0.5,   15.7,   0.00,   0.00, 1009.2,   87.3, -999.0
13-09-2022, 00:32:47,    334,    0.1,   15.7,   0.00,   0.00, 1009.2,   87.2, -999.0
13-09-2022, 00:32:54,    334,    0.0,   15.7,   0.00,   0.00, 1009.0,   86.9, -999.0
13-09-2022, 00:33:04,    334,    0.0,   15.7,   0.00,   0.00, 1009.1,   87.1, -999.0
13-09-2022, 00:33:15,    334,    0.0,   15.7,   0.00,   0.00, 1009.1,   87.0, -999.0
13-09-2022, 00:33:24,    334,    0.7,   15.7,   0.00,   0.00, 1009.2,   87.2, -999.0
13-09-2022, 00:33:34,    335,    0.0,   15.7,   0.00,   0.00, 1009.1,   87.0, -999.0
13-09-2022, 00:33:44,    335,    0.6,   15.7,   0.00,   0.00, 1009.2,   87.2, -999.0
13-09-2022, 00:33:54,     22,    0.2,   15.7,   0.00,   0.00, 1009.2,   87.1, -999.0
13-09-2022, 00:34:04,      0,    1.0,   15.7,   0.00,   0.00, 1009.2,   87.3, -999.0
13-09-2022, 00:34:14,      0,    1.1,   15.7,   0.00,   0.00, 1009.3,   87.4, -999.0
13-09-2022, 00:34:24,      0,    0.0,   15.7,   0.00,   0.00, 1009.1,   87.0, -999.0
13-09-2022, 00:34:34,      4,    0.9,   15.7,   0.00,   0.00, 1009.2,   87.4, -999.0
13-09-2022, 00:34:44,      0,    0.1,   15.7,   0.00,   0.00, 1009.2,   87.2, -999.0
13-09-2022, 00:34:54,    358,    0.0,   15.5,   0.00,   0.00, 1009.1,   87.0, -999.0
13-09-2022, 00:35:04,    358,    0.0,   15.6,   0.00,   0.00, 1009.1,   87.1, -999.0
13-09-2022, 00:35:14,     20,    0.6,   15.6,   0.00,   0.00, 1009.2,   87.3, -999.0
13-09-2022, 00:35:24,     22,    1.5,   15.7,   0.00,   0.00, 1009.2,   87.3, -999.0
13-09-2022, 00:35:33,    348,    1.0,   15.7,   0.00,   0.00, 1009.2,   87.4, -999.0
13-09-2022, 00:35:44,    349,    0.0,   15.7,   0.00,   0.00, 1009.2,   87.4, -999.0
13-09-2022, 00:35:54,    348,    0.2,   15.7,   0.00,   0.00, 1009.2,   87.5, -999.0
13-09-2022, 00:36:03,    331,    0.1,   15.7,   0.00,   0.00, 1009.2,   87.3, -999.0
13-09-2022, 00:36:13,    331,    0.0,   15.6,   0.00,   0.00, 1009.1,   87.3, -999.0
13-09-2022, 00:36:23,    331,    0.0,   15.7,   0.00,   0.00, 1009.1,   87.2, -999.0
13-09-2022, 00:36:33,    331,    0.0,   15.7,   0.00,   0.00, 1009.1,   87.2, -999.0
13-09-2022, 00:36:43,    331,    0.0,   15.6,   0.00,   0.00, 1009.1,   87.1, -999.0
13-09-2022, 00:36:53,    331,    0.0,   15.7,   0.00,   0.00, 1009.2,   87.2, -999.0
13-09-2022, 00:37:03,    331,    0.0,   15.6,   0.00,   0.00, 1009.2,   87.2, -999.0
13-09-2022, 00:37:13,    332,    0.0,   15.6,   0.00,   0.00, 1009.1,   87.2, -999.0
13-09-2022, 00:37:23,    331,    0.0,   15.6,   0.00,   0.00, 1009.1,   87.2, -999.0
13-09-2022, 00:37:33,    331,    0.0,   15.6,   0.00,   0.00, 1009.1,   87.1, -999.0
13-09-2022, 00:37:43,    331,    0.0,   15.6,   0.00,   0.00, 1009.1,   87.2, -999.0
13-09-2022, 00:37:53,      0,    0.0,   15.5,   0.00,   0.00, 1009.1,   87.2, -999.0
13-09-2022, 00:38:02,    343,    0.0,   15.6,   0.00,   0.00, 1009.1,   87.2, -999.0
13-09-2022, 00:38:13,    343,    0.0,   15.6,   0.00,   0.00, 1009.1,   87.0, -999.0
13-09-2022, 00:38:23,      4,    1.2,   15.6,   0.00,   0.00, 1009.2,   87.2, -999.0
13-09-2022, 00:38:32,      0,    1.9,   15.7,   0.00,   0.00, 1009.2,   87.5, -999.0
13-09-2022, 00:38:42,      0,    2.8,   15.6,   0.00,   0.00, 1009.2,   87.5, -999.0
13-09-2022, 00:38:53,      9,    2.0,   15.7,   0.00,   0.00, 1009.2,   87.5, -999.0
13-09-2022, 00:39:02,    352,    2.2,   15.7,   0.00,   0.00, 1009.3,   87.4, -999.0
13-09-2022, 00:39:12,      3,    1.6,   15.6,   0.00,   0.00, 1009.2,   87.4, -999.0
13-09-2022, 00:39:22,    339,    1.0,   15.6,   0.00,   0.00, 1009.2,   87.4, -999.0
13-09-2022, 00:39:32,    339,    0.0,   15.5,   0.00,   0.00, 1009.1,   87.1, -999.0
13-09-2022, 00:39:42,    342,    0.3,   15.6,   0.00,   0.00, 1009.1,   87.4, -999.0
13-09-2022, 00:39:52,    342,    0.0,   15.5,   0.00,   0.00, 1009.0,   87.2, -999.0
13-09-2022, 00:40:02,      0,    0.4,   15.6,   0.00,   0.00, 1009.1,   87.5, -999.0
13-09-2022, 00:40:12,      0,    0.3,   15.6,   0.00,   0.00, 1009.1,   87.5, -999.0
13-09-2022, 00:40:22,     17,    1.7,   15.6,   0.00,   0.00, 1009.2,   87.8, -999.0
13-09-2022, 00:40:32,    336,    2.0,   15.6,   0.00,   0.00, 1009.2,   87.7, -999.0
13-09-2022, 00:40:42,    348,    1.4,   15.6,   0.00,   0.00, 1009.2,   87.6, -999.0
13-09-2022, 00:40:51,    337,    3.2,   15.6,   0.00,   0.00, 1009.2,   87.6, -999.0
13-09-2022, 00:41:02,    314,    3.8,   15.6,   0.00,   0.00, 1009.2,   87.6, -999.0
13-09-2022, 00:41:12,    318,    1.1,   15.6,   0.00,   0.00, 1009.2,   87.5, -999.0
13-09-2022, 00:41:21,    332,    1.7,   15.6,   0.00,   0.00, 1009.2,   87.5, -999.0
13-09-2022, 00:41:32,     15,    1.5,   15.5,   0.00,   0.00, 1009.2,   87.5, -999.0
13-09-2022, 00:41:41,    294,    1.3,   15.5,   0.00,   0.00, 1009.2,   87.5, -999.0
13-09-2022, 00:41:51,      0,    0.8,   15.5,   0.00,   0.00, 1009.2,   87.6, -999.0
13-09-2022, 00:42:03,      0,    0.8,   15.5,   0.00,   0.00, 1009.2,   87.7, -999.0
13-09-2022, 00:42:11,      0,    1.0,   15.5,   0.00,   0.00, 1009.2,   87.6, -999.0
13-09-2022, 00:42:21,    320,    0.3,   15.5,   0.00,   0.00, 1009.1,   87.4, -999.0
13-09-2022, 00:42:31,      9,    1.2,   15.5,   0.00,   0.00, 1009.2,   87.7, -999.0
13-09-2022, 00:42:41,      0,    1.6,   15.5,   0.00,   0.00, 1009.2,   87.7, -999.0
13-09-2022, 00:42:51,      0,    2.0,   15.6,   0.00,   0.00, 1009.2,   87.8, -999.0
13-09-2022, 00:43:01,    307,    1.3,   15.5,   0.00,   0.00, 1009.1,   87.7, -999.0
13-09-2022, 00:43:11,    353,    2.0,   15.5,   0.00,   0.00, 1009.2,   87.8, -999.0
13-09-2022, 00:43:21,      0,    1.4,   15.5,   0.00,   0.00, 1009.2,   87.8, -999.0
13-09-2022, 00:43:31,    338,    0.6,   15.5,   0.00,   0.00, 1009.2,   87.8, -999.0
13-09-2022, 00:43:41,    348,    0.1,   15.5,   0.00,   0.00, 1009.1,   87.6, -999.0
13-09-2022, 00:43:50,      8,    1.0,   15.5,   0.00,   0.00, 1009.1,   87.7, -999.0
13-09-2022, 00:44:01,      8,    0.1,   15.5,   0.00,   0.00, 1009.1,   87.6, -999.0
13-09-2022, 00:44:11,      0,    0.0,   15.5,   0.00,   0.00, 1009.1,   87.4, -999.0
13-09-2022, 00:44:20,      0,    0.0,   15.5,   0.00,   0.00, 1009.0,   87.5, -999.0
13-09-2022, 00:44:30,      0,    0.0,   15.5,   0.00,   0.00, 1009.1,   87.5, -999.0
13-09-2022, 00:44:40,    354,    0.1,   15.5,   0.00,   0.00, 1009.0,   87.5, -999.0
13-09-2022, 00:44:50,    343,    3.3,   15.6,   0.00,   0.00, 1009.2,   87.9, -999.0
13-09-2022, 00:45:00,      3,    2.6,   15.5,   0.00,   0.00, 1009.2,   87.9, -999.0
13-09-2022, 00:45:10,    334,    1.8,   15.5,   0.00,   0.00, 1009.2,   87.7, -999.0
13-09-2022, 00:45:20,    331,    0.7,   15.5,   0.00,   0.00, 1009.2,   87.7, -999.0
13-09-2022, 00:45:30,    331,    0.1,   15.5,   0.00,   0.00, 1009.1,   87.5, -999.0
13-09-2022, 00:45:40,    331,    0.3,   15.5,   0.00,   0.00, 1009.1,   87.6, -999.0
13-09-2022, 00:45:50,      3,    0.5,   15.5,   0.00,   0.00, 1009.2,   87.9, -999.0
13-09-2022, 00:46:00,      3,    0.1,   15.5,   0.00,   0.00, 1009.1,   87.7, -999.0
13-09-2022, 00:46:10,      3,    0.0,   15.5,   0.00,   0.00, 1009.1,   87.6, -999.0
13-09-2022, 00:46:20,      0,    0.0,   15.5,   0.00,   0.00, 1009.1,   87.6, -999.0
13-09-2022, 00:46:30,     16,    0.8,   15.5,   0.00,   0.00, 1009.1,   87.9, -999.0
13-09-2022, 00:46:40,     14,    0.3,   15.5,   0.00,   0.00, 1009.1,   87.8, -999.0